Stations météo

réclame
Mon MeteoGroup
Altnaharra, Grande-Bretagne (3044): Température de l'air & dewpoint: 08.08.2018 20:00:00 - 14.08.2018 20:00:00 (BST)Altnaharra, Grande-Bretagne (3044): Température de l'air -20cm & Température de l'air -100cm: 08.08.2018 20:00:00 - 14.08.2018 20:00:00 (BST)Altnaharra, Grande-Bretagne (3044): Vitesse du vent & gusts: 08.08.2018 20:00:00 - 14.08.2018 20:00:00 (BST)Altnaharra, Grande-Bretagne (3044): Direction du vent: 08.08.2018 20:00:00 - 14.08.2018 20:00:00 (BST)Altnaharra, Grande-Bretagne (3044): reduced air pressure: 08.08.2018 20:00:00 - 14.08.2018 20:00:00 (BST)Altnaharra, Grande-Bretagne (3044): visibility: 08.08.2018 20:00:00 - 14.08.2018 20:00:00 (BST)Altnaharra, Grande-Bretagne (3044): Ensoleillement: 08.08.2018 20:00:00 - 14.08.2018 20:00:00 (BST)Altnaharra, Grande-Bretagne (3044): Quantités de précipitations: 08.08.2018 20:00:00 - 14.08.2018 20:00:00 (BST)
Date & Time tt [°C] td [°C] tt -20cm [°C] tt -100cm [°C] ff [km/h] ff [knt] fx [km/h] fx [knt] dd ppp [hPa] vv [km] sd [min] rr [mm]
14.08.2018 20:00:00 - - - - - - - - - - - - -
14.08.2018 19:00:00 16,9 12,6 - - 18 10 - - SW 1006,4 30 24 0,0
14.08.2018 18:00:00 17,5 13,3 - - 15 8 - - SW 1006,2 40 0 0,0
14.08.2018 17:00:00 18,6 14,4 - - 13 7 - - SSW 1005,9 27 36 0,0
14.08.2018 16:00:00 19,4 14,8 - - 18 10 - - S 1005,9 45 42 0,0
14.08.2018 15:00:00 17,5 14,0 - - 18 10 - - S 1006,1 17 54 0,0
14.08.2018 14:00:00 16,3 13,5 - - 21 11 - - SSE 1006,6 7 6 0,0
14.08.2018 13:00:00 14,5 13,1 - - 15 8 - - S 1006,8 45 0 0,8
14.08.2018 12:00:00 13,9 12,8 - - 9 5 - - SSE 1007,1 8 0 2,0
14.08.2018 11:00:00 13,9 12,7 - - 9 5 - - S 1007,5 29 0 0,6
14.08.2018 10:00:00 14,3 12,6 15,2 14,4 9 5 - - S 1007,4 45 0 0,2
14.08.2018 09:00:00 14,7 11,9 - - 8 4 - - S 1007,3 45 0 0,0
14.08.2018 08:00:00 14,1 12,1 - - 9 5 - - S 1007,4 50 0 0,0
14.08.2018 07:00:00 13,4 11,8 - - 5 3 - - SSE 1007,4 45 0 0,0
14.08.2018 06:00:00 13,5 11,7 - - 8 4 - - S 1007,9 50 0 0,0
14.08.2018 05:00:00 13,6 11,9 - - 8 4 - - S 1007,9 50 0 0,0
14.08.2018 04:00:00 13,4 11,7 - - 9 5 - - S 1007,8 50 0 0,0
14.08.2018 03:00:00 13,6 12,1 - - 9 5 - - S 1008,1 50 0 0,0
14.08.2018 02:00:00 13,4 12,4 - - 2 1 - - SSW 1008,4 50 0 0,0
14.08.2018 01:00:00 13,7 12,9 - - 8 4 - - SSE 1008,8 40 - 0,2
14.08.2018 00:00:00 13,5 12,8 - - 5 3 - - SW 1008,8 21 0 0,0
13.08.2018 23:00:00 13,5 12,8 - - 5 3 - - WSW 1008,8 5 0 0,0
13.08.2018 22:00:00 13,8 12,6 - - 9 5 - - NNW 1008,7 50 0 0,0
13.08.2018 21:00:00 14,6 12,6 - - 4 2 - - WNW 1008,6 50 0 0,0
13.08.2018 20:00:00 15,0 12,7 - - 8 4 - - NNW 1008,2 50 0 0,0
13.08.2018 19:00:00 15,7 12,5 - - 5 3 - - NNW 1008,0 50 0 0,0
13.08.2018 18:00:00 15,8 12,7 - - 4 2 - - N 1008,2 50 0 0,0
13.08.2018 17:00:00 15,6 12,5 - - 9 5 - - E 1008,4 45 0 0,0
13.08.2018 16:00:00 15,3 12,2 - - 13 7 - - E 1008,5 50 0 0,0
13.08.2018 15:00:00 15,0 12,1 - - 15 8 - - ESE 1008,7 50 0 0,0
13.08.2018 14:00:00 15,4 11,9 - - 13 7 - - ESE 1008,6 40 0 0,0
13.08.2018 13:00:00 14,3 11,4 - - 16 9 - - ESE 1008,6 50 0 0,0
13.08.2018 12:00:00 14,2 11,2 - - 15 8 - - E 1008,8 45 0 0,0
13.08.2018 11:00:00 13,6 11,7 - - 21 11 - - E 1008,6 35 0 0,0
13.08.2018 10:00:00 13,4 11,0 15,2 14,4 15 8 - - ENE 1008,8 14 0 0,0
13.08.2018 09:00:00 12,5 11,1 - - 21 11 - - NE 1008,7 50 0 0,0
13.08.2018 08:00:00 11,9 10,9 - - 18 10 - - NE 1008,9 35 0 0,0
13.08.2018 07:00:00 11,3 10,2 - - 18 10 - - NE 1008,7 30 0 0,0
13.08.2018 06:00:00 11,4 10,5 - - 16 9 - - NE 1008,7 7 0 0,0
13.08.2018 05:00:00 11,5 10,5 - - 18 10 - - NE 1008,8 11 0 0,0
13.08.2018 04:00:00 11,5 10,3 - - 18 10 - - NE 1009,2 13 0 0,0
13.08.2018 03:00:00 11,4 9,9 - - 9 5 - - N 1009,3 30 0 0,0
13.08.2018 02:00:00 11,6 10,2 - - 13 7 - - NNE 1009,8 45 0 0,0
13.08.2018 01:00:00 11,6 10,6 - - 11 6 - - NNE 1009,8 45 - 0,0
13.08.2018 00:00:00 11,2 10,1 - - 15 8 - - NE 1010,2 35 0 0,4
12.08.2018 23:00:00 11,6 10,1 - - 16 9 - - ENE 1010,2 19 0 0,2
12.08.2018 22:00:00 11,8 10,0 - - 22 12 - - ENE 1010,2 27 0 0,4
12.08.2018 21:00:00 11,8 10,2 - - 21 11 - - ENE 1010,4 27 0 0,8
12.08.2018 20:00:00 12,4 10,3 - - 18 10 - - ENE 1010,2 35 0 0,2
12.08.2018 19:00:00 13,0 9,4 - - 22 12 - - ENE 1010,1 45 0 0,0
12.08.2018 18:00:00 14,6 8,3 - - 26 14 - - ENE 1009,9 27 0 0,0
12.08.2018 17:00:00 15,2 10,0 - - 28 15 - - ENE 1009,9 30 0 0,0
12.08.2018 16:00:00 15,5 10,5 - - 29 16 - - ENE 1010,0 40 0 0,0
12.08.2018 15:00:00 15,7 10,2 - - 29 16 46 25 ENE 1010,3 45 0 0,0
12.08.2018 14:00:00 15,9 10,1 - - 29 16 - - E 1010,2 30 18 0,0
12.08.2018 13:00:00 15,3 10,7 - - 34 18 46 25 E 1010,5 35 0 0,0
12.08.2018 12:00:00 14,7 10,2 - - 29 16 - - ENE 1010,8 35 0 0,0
12.08.2018 11:00:00 14,5 10,5 - - 31 17 - - E 1010,7 40 0 0,0
12.08.2018 10:00:00 13,7 10,9 15,4 14,5 28 15 - - ENE 1010,8 40 0 0,0
12.08.2018 09:00:00 13,8 10,9 - - 24 13 - - ENE 1010,7 40 0 0,0
12.08.2018 08:00:00 12,7 10,2 - - 21 11 - - ENE 1010,8 50 0 0,0
12.08.2018 07:00:00 12,1 10,7 - - 21 11 - - NE 1010,7 40 0 0,0
12.08.2018 06:00:00 11,8 10,5 - - 15 8 - - NE 1010,7 35 0 0,0
12.08.2018 05:00:00 10,9 9,8 - - 11 6 - - NE 1011,1 45 0 0,0
12.08.2018 04:00:00 11,0 9,8 - - 16 9 - - NE 1011,6 45 0 0,0
12.08.2018 03:00:00 11,3 10,0 - - 18 10 - - NE 1012,3 45 0 0,0
12.08.2018 02:00:00 11,0 9,6 - - 15 8 - - NNE 1012,9 50 0 0,0
12.08.2018 01:00:00 11,3 9,7 - - 16 9 - - NE 1013,5 50 - 0,0
12.08.2018 00:00:00 11,0 8,9 - - 15 8 - - NE 1014,1 50 0 0,0
11.08.2018 23:00:00 11,5 8,9 - - 15 8 - - NE 1014,5 50 0 0,0
11.08.2018 22:00:00 11,9 9,2 - - 18 10 - - ENE 1015,0 35 0 0,0
11.08.2018 21:00:00 12,6 8,5 - - 16 9 - - ENE 1015,4 50 0 0,0
11.08.2018 20:00:00 13,1 9,0 - - 15 8 - - NE 1015,6 50 0 0,0
11.08.2018 19:00:00 13,9 9,2 - - 16 9 - - NNE 1015,7 40 0 0,0
11.08.2018 18:00:00 14,3 8,8 - - 13 7 - - NNE 1016,0 50 0 0,0
11.08.2018 17:00:00 14,6 9,2 - - 11 6 - - NNE 1016,2 50 0 0,0
11.08.2018 16:00:00 15,0 9,6 - - 13 7 - - N 1016,4 40 0 0,0
11.08.2018 15:00:00 15,1 9,6 - - 16 9 - - NNE 1016,7 45 0 0,0
11.08.2018 14:00:00 16,1 6,9 - - 5 3 - - W 1016,7 45 42 0,0
11.08.2018 13:00:00 15,8 6,8 - - 5 3 - - W 1016,9 50 12 0,0
11.08.2018 12:00:00 14,8 7,5 - - 9 5 - - W 1017,1 50 0 0,0
11.08.2018 11:00:00 14,4 7,4 - - 9 5 - - WNW 1017,3 50 24 0,0
11.08.2018 10:00:00 14,9 8,6 15,4 14,5 11 6 - - SSW 1017,3 40 54 0,0
11.08.2018 09:00:00 13,2 9,6 - - 16 9 - - SSE 1017,4 35 60 0,0
11.08.2018 08:00:00 11,8 10,7 - - 8 4 - - SSW 1017,6 50 42 0,0
11.08.2018 07:00:00 8,1 8,1 - - 5 3 - - W 1017,8 35 30 0,0
11.08.2018 06:00:00 5,1 4,5 - - 2 1 - - SSW 1017,6 0,5 0 0,2
11.08.2018 05:00:00 5,4 5,0 - - 4 2 - - ENE 1017,6 - 0 0,0
11.08.2018 04:00:00 7,2 6,7 - - 5 3 - - NW 1017,6 28 0 0,0
11.08.2018 03:00:00 8,2 8,0 - - 5 3 - - NNW 1017,5 30 0 0,0
11.08.2018 02:00:00 7,5 7,3 - - 4 2 - - NNW 1017,8 50 0 0,0
11.08.2018 01:00:00 7,0 6,7 - - 2 1 - - NE 1017,9 40 - 0,0
11.08.2018 00:00:00 8,1 7,6 - - 2 1 - - WSW 1017,7 40 0 0,0
10.08.2018 23:00:00 8,4 7,6 - - 2 1 - - W 1017,5 45 0 0,0
10.08.2018 22:00:00 10,8 10,0 - - 2 1 - - E 1016,9 29 0 0,0
10.08.2018 21:00:00 12,1 10,9 - - 0 0 - - N 1016,3 40 0 0,0
10.08.2018 20:00:00 12,5 10,7 - - 8 4 - - ENE 1016,0 35 0 0,0
10.08.2018 19:00:00 12,6 10,8 - - 8 4 - - ENE 1015,5 50 6 0,0
10.08.2018 18:00:00 13,0 11,5 - - 11 6 - - E 1015,2 35 6 6,4
10.08.2018 17:00:00 12,9 10,8 - - 2 1 - - SW 1015,0 1,6 0 2,2
10.08.2018 16:00:00 14,4 9,8 - - 9 5 - - NNW 1014,3 30 0 0,0
10.08.2018 15:00:00 14,8 9,2 - - 16 9 - - W 1013,7 50 18 0,0
10.08.2018 14:00:00 14,2 9,4 - - 9 5 - - ESE 1013,3 50 18 0,2
10.08.2018 13:00:00 13,2 11,1 - - 8 4 - - NNW 1012,9 18 6 1,2
10.08.2018 12:00:00 14,5 8,2 - - 9 5 - - NNE 1012,3 19 6 0,0
10.08.2018 11:00:00 15,3 8,8 - - 5 3 - - E 1012,0 40 48 0,0
10.08.2018 10:00:00 13,0 8,4 15,5 14,7 2 1 - - ESE 1012,1 45 0 0,0
10.08.2018 09:00:00 11,2 8,6 - - 2 1 - - WNW 1012,1 40 0 0,0
10.08.2018 08:00:00 9,2 8,5 - - 0 0 - - N 1011,7 45 0 0,0
10.08.2018 07:00:00 7,6 7,3 - - 4 2 - - WNW 1011,5 45 0 0,0
10.08.2018 06:00:00 6,9 6,6 - - 4 2 - - NW 1011,3 50 0 0,0
10.08.2018 05:00:00 6,4 6,1 - - 5 3 - - W 1011,2 50 0 0,0
10.08.2018 04:00:00 6,3 6,0 - - 2 1 - - NE 1011,5 35 0 0,0
10.08.2018 03:00:00 4,7 4,4 - - 5 3 - - W 1011,4 28 0 0,0
10.08.2018 02:00:00 5,6 4,9 - - 4 2 - - N 1011,5 50 0 0,0
10.08.2018 01:00:00 6,6 6,2 - - 2 1 - - S 1011,6 50 - 0,0
10.08.2018 00:00:00 5,6 5,0 - - 4 2 - - ESE 1011,6 50 0 0,0
09.08.2018 23:00:00 7,5 4,6 - - 2 1 - - SW 1011,1 45 0 0,0
09.08.2018 22:00:00 10,1 6,2 - - 4 2 - - S 1010,8 23 0 0,0
09.08.2018 21:00:00 13,1 7,4 - - 8 4 - - SSW 1010,6 45 30 0,0
09.08.2018 20:00:00 14,3 7,8 - - 9 5 - - SSW 1010,1 40 18 0,0
09.08.2018 19:00:00 14,5 7,3 - - 16 9 - - SW 1009,9 40 30 0,0
09.08.2018 18:00:00 15,6 7,1 - - 16 9 - - S 1009,7 40 54 0,0
09.08.2018 17:00:00 16,1 7,9 - - 18 10 - - SW 1009,4 50 54 0,0
09.08.2018 16:00:00 17,9 9,0 - - 15 8 - - S 1008,7 18 42 0,0
09.08.2018 15:00:00 16,5 7,5 - - 16 9 - - SSW 1008,7 30 54 0,0
09.08.2018 14:00:00 15,3 7,6 - - 15 8 - - SSW 1008,4 40 36 0,0
09.08.2018 13:00:00 14,7 7,9 - - 21 11 - - S 1007,8 40 42 0,0
09.08.2018 12:00:00 14,1 7,5 - - 21 11 46 25 S 1007,6 35 42 0,0
09.08.2018 11:00:00 15,0 7,5 - - 28 15 50 27 S 1007,0 40 42 0,0
09.08.2018 10:00:00 12,8 7,5 15,7 14,7 15 8 - - S 1007,0 35 0 0,0
09.08.2018 09:00:00 12,6 7,7 - - 16 9 - - S 1006,8 50 18 0,0
09.08.2018 08:00:00 12,4 7,8 - - 18 10 - - SSE 1006,8 30 48 0,0
09.08.2018 07:00:00 10,4 7,1 - - 5 3 - - SW 1006,8 50 30 0,0
09.08.2018 06:00:00 5,5 4,2 - - 8 4 - - NW 1007,1 45 0 0,0
09.08.2018 05:00:00 5,5 4,8 - - 8 4 - - N 1007,2 45 0 0,0
09.08.2018 04:00:00 6,1 4,8 - - 5 3 - - SE 1007,4 50 0 0,0
09.08.2018 03:00:00 6,2 4,3 - - 2 1 - - W 1007,3 50 0 0,0
09.08.2018 02:00:00 7,4 5,2 - - 5 3 - - NNW 1007,0 50 0 0,0
09.08.2018 01:00:00 7,8 5,8 - - 5 3 - - WSW 1006,9 45 - 0,0
09.08.2018 00:00:00 7,8 6,1 - - 5 3 - - WSW 1007,0 40 0 0,0
08.08.2018 23:00:00 7,8 5,8 - - 4 2 - - NNW 1006,9 50 0 0,0
08.08.2018 22:00:00 10,4 6,7 - - 11 6 - - SW 1006,7 40 0 0,0
08.08.2018 21:00:00 11,2 7,7 - - 9 5 - - S 1006,1 50 6 0,0
08.08.2018 20:00:00 12,0 9,8 - - 9 5 - - S 1005,3 50 0 0,4

tt = Température de l'air
td = dewpoint
tt -20cm = Température de l'air -20cm
tt -100cm = Température de l'air -100cm
ff = Vitesse du vent
fx = gusts
dd = Direction du vent
ppp = reduced air pressure
vv = visibility
sd = Ensoleillement
rr = Quantités de précipitations

stations d'obs. à proximité